Find Starlink 33833

NORAD ID: 63498 Int'l Des: 2025-071 Owner: SPXS Country: US Constellation: starlink operational
LEOCIRCULAR

現在のビュー

3D地球を読み込み中...

Starlink 33833について

説明を読み込み中...

次回通過

Passes for default location (London). Set your location on the main map for personalized predictions.

高度履歴

Loading altitude history...

軌道要素

1 63498U 25071F 26145.14346373 .00015849 00000-0 54611-3 0 9991
2 63498 53.1579 144.9196 0001179 104.1110 256.0022 15.30198674 64474
Epoch: May 25, 2026 • Age: 12 hours

現在のステータス

高度 479.0 km
速度 7.63 km/s
衛星直下点 -14.27°S, 138.81°W
打ち上げ日 Apr 7, 2025
運用期間 1.1 years
タイプ internet

技術仕様

分類 Payload
質量 575.00 kg
乾燥質量 530.00 kg
総質量 575.00 kg
長さ 0.30 m
直径 4.10 m
スパン 29.00 m
形状 Box + pan
製造者 SPXS
バスタイプ Starlink V2MO
フェーズステータス In Orbit
所有者/国 SPXS/US

Most Searched